{"data":{"norad_id":68092,"epoch":"2026-05-25T02:35:05.565120Z","epoch_age_seconds":65427,"freshness":"FRESH","line1":"1 68092U 26042Z   26145.10770330  .00019849  00000+0  59699-3 0  9999","line2":"2 68092  53.1591 183.1630 0001403  87.7921 272.3242 15.34402004 14005","mean_motion":15.34402004,"eccentricity":0.0001403,"inclination_deg":53.1591,"raan_deg":183.163,"arg_perigee_deg":87.7921,"mean_anomaly_deg":272.3242,"bstar":0.00059699,"rev_number":1400,"period_min":93.847635511821,"perigee_km":461.73751485323,"apogee_km":463.6570529533,"semimajor_km":6840.8342839033,"source":"CELESTRAK","updated_at":"2026-05-25T13:38:21.839086Z"}}